www.pogodaiklimat.ru

Погода и климат >> Архив погоды >> Фиджи >> Sigatoka


ПОГОДА в Sigatoka

  • Прогноз погоды в Sigatoka
  • Монитор погоды в Sigatoka
  • Климат города

АРХИВ ПОГОДЫ в Sigatoka

Время (UTC), дата Ветер
(напр.,м/с)
 
Видим.   Явления Облачность Т
(С)
Тd
(С)
f
(%)
Тe
(С)
Тes
(С)
Комфортность P
(гПа)
Po
(гПа)
Тmin
(С)
Tmax
(С)
R
(мм)
R24
(мм)
S
(см)
00 17.10 ЮВ 6 н/о н/о +29.4 +22.1 65 +38 +38 очень
душно
1011.2 1010.1 +20.7
03 17.10 ЮВ 5 н/о н/о +28.9 +22.1 67 +38 +38 очень
душно
1008.7 1007.6
06 17.10 ЮВ 3 н/о н/о +26.2 +21.9 77 +34 +34 очень
душно
1009.8 1008.7
09 17.10 В 2 н/о н/о +24.9 +21.3 80 +31 +31 очень
душно
1011.9 1010.8
12 17.10 В 2 н/о н/о +24.3 +22.4 89 +32 +32 очень
душно
1011.4 1010.3 +30.8
15 17.10 ЮВ 2 н/о н/о +23.6 +21.3 87 +30 +30 очень
душно
1009.5 1008.4
18 17.10 В 2 н/о н/о +23.1 +20.7 86 +30 +30 очень
душно
1010.1 1009.0 0.5
21 17.10 В 4 н/о н/о +27.5 +21.0 68 +35 +35 очень
душно
1011.6 1010.5
03 18.10 ЮВ 5 н/о н/о +28.0 +20.8 65 +35 +35 очень
душно
1008.5 1007.4
06 18.10 ЮВ 4 н/о н/о +25.7 +19.9 70 +31 +31 очень
душно
1010.0 1008.9
09 18.10 ЮВ 2 н/о н/о +24.3 +21.3 83 +31 +31 очень
душно
1011.7 1010.6
12 18.10 В 1 н/о н/о +21.4 +20.8 96 +27 +27 душно 1011.2 1010.1 +29.9 2
15 18.10 ЮВ 2 н/о н/о +21.8 +20.9 95 +28 +28 душно 1010.2 1009.1
18 18.10 В 1 н/о н/о +21.3 +20.3 94 +26 +26 душно 1010.9 1009.8 2
21 18.10 В 4 н/о н/о +23.2 +21.1 88 +31 +31 очень
душно
1011.8 1010.7
00 19.10 ЮВ 3 н/о н/о +22.9 +21.8 94 +31 +31 очень
душно
1011.2 1010.1 +21.0 4
03 19.10 ЮВ 4 н/о н/о +23.7 +20.9 84 +30 +30 очень
душно
1009.5 1008.4
06 19.10 В 3 н/о н/о +21.8 +19.9 89 +27 +27 душно 1010.2 1009.1 0.5
09 19.10 ЮВ 3 н/о н/о +21.0 +20.3 96 +27 +27 душно 1012.1 1011.0
12 19.10 В 2 н/о н/о +20.8 +19.8 94 +26 +26 душно 1012.0 1010.9 +29.6 5
15 19.10 В 2 н/о н/о +21.1 +18.7 86 +25 +25 комфорт 1010.4 1009.3
18 19.10 В 3 н/о н/о +21.2 +18.4 84 +25 +25 комфорт 1010.7 1009.6
21 19.10 В 3 н/о н/о +23.0 +19.4 80 +29 +29 очень
душно
1012.2 1011.1
00 20.10 ЮВ 4 н/о н/о +24.6 +19.1 71 +30 +30 очень
душно
1011.6 1010.5 +20.5
03 20.10 ЮВ 4 н/о н/о +25.3 +18.4 66 +30 +30 душно 1010.2 1009.1
06 20.10 В 3 н/о н/о +22.9 +17.5 72 +28 +28 душно 1010.9 1009.8
09 20.10 СВ 2 н/о н/о +21.5 +17.4 77 +26 +26 душно 1012.0 1010.9
12 20.10 штиль 0 н/о н/о +19.0 +17.5 91 +20 +20 1011.9 1010.8 +25.5
15 20.10 З 1 н/о н/о +17.5 +16.9 96 +19 +19 1010.6 1009.5
18 20.10 С 1 н/о н/о +17.6 +17.3 98 +19 +19 1011.4 1010.3
21 20.10 ЮВ 4 н/о н/о +24.4 +20.1 77 +30 +30 очень
душно
1012.9 1011.8
00 21.10 ЮВ 5 н/о н/о +25.2 +20.7 76 +31 +31 очень
душно
1012.2 1011.1 +17.0
03 21.10 ЮВ 5 н/о н/о +26.0 +19.6 68 +32 +32 очень
душно
1010.5 1009.4
06 21.10 ЮВ 4 н/о н/о +23.0 +19.2 79 +29 +29 очень
душно
1011.8 1010.7

 

Местоположение метеостанции Sigatoka (Фиджи): широта -18.15 долгота 178.41 высота над уровнем моря 9 м.

В архиве по умолчанию представлена погода в Sigatoka за последнюю неделю. Архивные данные за месяц целиком и за предыдущие месяцы, начиная с января 2011 года, Вы можете получить, выбрав интересующий диапазон дат из раскрывающегося списка и нажав кнопку "Ввод!".

Внимание! Время в таблицах - всемирное. Для получения местного времени необходимо прибавить поправку, которая в Sigatoka равна 12 ч.

Смотрите также архив погоды в соседних городах и на ближайших метеорологических станциях:

Погода в Nausori (Фиджи) (19 км)
Погода в Rakiraki Aws (Фиджи) (91 км)
Погода в Vunisea (Фиджи) (104 км)
Погода в Nandi (Фиджи) (111 км)
Погода в Vanua Mbalavu (Фиджи) (114 км)
Погода в Nabouwalu (Фиджи) (132 км)
Погода в Matuku (Фиджи) (158 км)
Погода в Yasawa-I-Rara (Фиджи) (184 км)
Погода в Viwa Island (Фиджи) (195 км)
Погода в Undu Point (Фиджи) (280 км)

Пояснения к столбцам:

Ветер - указаны скорость ветра в м/с - средняя за 10 мин, порывы в срок и между сроками (в фигурных скобках) и направление, откуда дует ветер: С - северный, СВ - северо-восточный, В - восточный, ЮВ - юго-восточный, Ю - южный, ЮЗ - юго-западный, З - западный, СЗ - северо-западный.
Видимость - горизонтальная дальность видимости в метрах или километрах. При видимости от 1 до 10 км при отсутствии осадков обычно наблюдается дымка, при ухудшении видимости до 1 км и менее - туман. В сухую погоду видимость может ухудшаться дымом, пылью или мглою.
Явления - указаны атмосферные явления, наблюдавшиеся в срок или в последний час перед сроком; фигурными скобками обозначены явления, наблюдавшиеся между сроками (за 1-3 часа до срока); квадратными скобками обозначены град или гололедные отложения с указанием их диаметра в мм.
Облачность - указаны через наклонную черту общая и нижняя облачность в баллах и высота нижней границы облаков в метрах; квадратными скобками обозначены формы облаков: Ci - перистые, Cs - перисто-слоистые, Cc - перисто-кучевые, Ac - высококучевые, As - высокослоистые, Sc - слоисто-кучевые, Ns - слоисто-дождевые, Cu - кучевые, Cb - кучево-дождевые. Подробнее классификацию облаков см. в Атласе облаков (PDF).
T - Температура воздуха - температура, измеренная на высоте 2 м над землей.
Td - Температура точки росы - температура, при понижении до которой содержащийся в воздухе водяной пар достигнет насыщения.
f - Относительная влажность воздуха - влажноcть воздуха, измеренная на высоте 2 м над землей.
Te - Эффективная температура - температура, которую ощущает одетый по сезону человек в тени. Характеристика душности погоды. При расчете учитывается влияние влажности воздуха и скорости ветра на теплоощущения человека.
Tes - Эффективная температура на солнце - температура, которую ощущает человек, с поправкой на солнечный нагрев. Характеристика знойности погоды. Зависит от высоты солнца над горизонтом, облачности и скорости ветра. Ночью, в пасмурную погоду, а также при ветре 12 м/с и более поправка равна нулю.
P - Атмосферное давление - приведенное к уровню моря атмосферное давление.
Po - Атмосферное давление - измеренное на уровне метеостанции атмосферное давление.
Tmin - Минимальная температура - минимум температуры воздуха на высоте 2 м над землей.
Tmax - Максимальная температура - максимум температуры воздуха на высоте 2 м над землей.
R - Количество осадков - Количество выпавших осадков за период времени, мм. При наведении курсора мыши на число - период времени, за который выпало указанное количество осадков.
R24 - Количество осадков - Количество выпавших осадков за 24 часа, мм.
S - Снежный покров - Высота снежного покрова, см. При наведении курсора мыши на число - состояние снежного покрова и степень покрытия местности в баллах.